AO-07 1 07530U 74089B 19241.38834466 -.00000043 00000-0 13457-4 0 9994 2 07530 101.7508 208.3326 0011825 207.5543 307.4055 12.53639575 49504 UO-11 1 14781U 84021B 19240.60905809 .00000026 00000-0 93002-5 0 9996 2 14781 97.6083 261.9611 0010068 87.6410 272.5957 14.83102287909273 LO-19 1 20442U 90005G 19241.80040682 -.00000030 00000-0 54487-5 0 9998 2 20442 98.6519 183.6935 0010783 300.3569 59.6548 14.32931207546703 HUBBLE 1 20580U 90037B 19240.90843375 .00000356 00000-0 10683-4 0 9995 2 20580 28.4694 101.0085 0002735 169.0484 304.8111 15.09257773411655 MET-2/21 1 22782U 93055A 19240.89853169 -.00000008 00000-0 -20799-4 0 9999 2 22782 82.5471 106.5707 0021995 341.7765 95.7157 13.83820279312716 AO-27 1 22825U 93061C 19240.93579358 -.00000012 00000-0 13511-4 0 9992 2 22825 098.9082 231.2144 0008957 145.3339 214.8428 14.30065056351863 IO-26 1 22826U 93061D 19241.41051693 -.00000011 00000-0 13770-4 0 9990 2 22826 98.9023 231.6827 0009686 133.8907 226.3076 14.30398950352404 FO-29 1 24278U 96046B 19240.90697437 -.00000027 00000-0 66353-5 0 9997 2 24278 098.5477 024.6819 0351182 055.4798 307.8975 13.53093055137186 NOAA-15 1 25338U 98030A 19241.76141863 .00000036 00000-0 33973-4 0 9992 2 25338 98.7444 262.8883 0011086 38.9277 321.2698 14.25928527107529 GO-32 1 25397U 98043D 19241.79794238 -.00000031 00000-0 57302-5 0 9993 2 25397 98.6915 181.0800 0001545 141.4223 218.7066 14.23669508 98131 ISS 1 25544U 98067A 19241.71763873 .00001723 00000-0 37705-4 0 9998 2 25544 51.6447 356.5208 0007928 342.0228 177.1194 15.50400696186668 NO-44 1 26931U 01043C 19240.88302018 -.00000063 00000-0 75871-5 0 9998 2 26931 67.0512 179.9713 0007477 273.3595 86.6650 14.30550392935156 SO-50 1 27607U 02058C 19241.18429881 -.00000069 00000-0 11235-4 0 9997 2 27607 64.5546 191.0151 0078236 242.7486 116.5631 14.75567081897585 CO-55 1 27844U 03031E 19240.92159700 .00000038 00000-0 36690-4 0 9990 2 27844 098.6848 248.0711 0009785 178.1353 181.9863 14.22191414838374 CO-57 1 27848U 03031J 19241.00440645 .00000029 00000-0 32871-4 0 9992 2 27848 98.6925 248.6679 0009442 189.6087 170.4911 14.21785044838277 RS-22 1 27939U 03042A 19241.74401611 .00000036 00000-0 15122-4 0 9994 2 27939 98.0506 16.1963 0012838 193.9648 166.1206 14.66798551851107 NOAA-18 1 28654U 05018A 19241.74989180 .00000058 00000-0 56501-4 0 9996 2 28654 99.0899 289.7770 0013775 338.9894 21.0710 14.12447789735685 CO-58 1 28895U 05043F 19241.63037074 .00000063 00000-0 20952-4 0 9992 2 28895 97.9691 21.9357 0018034 122.4865 237.8084 14.63685119738000 Falconsat-3 1 30776U 07006E 19240.71708343 .00001656 00000-0 47032-4 0 9993 2 30776 35.4359 357.3136 0002404 16.4764 343.6040 15.36395411691611 CO-65 1 32785U 08021C 19241.15242915 .00000123 00000-0 18852-4 0 9996 2 32785 97.5527 237.5062 0013909 32.0508 328.1552 14.88334998614315 AAUSAT2 1 32788U 08021F 19241.07720327 .00000025 00000-0 72965-5 0 9995 2 32788 97.4965 253.6485 0010836 327.8090 32.2469 14.94778079615587 DO-64 1 32789U 08021G 19241.72666421 .00000553 00000-0 40901-4 0 9992 2 32789 97.4591 289.2000 0010853 233.7510 126.2716 15.07069773617818 CO-66 1 32791U 08021J 19240.98331971 .00000117 00000-0 17186-4 0 9996 2 32791 97.5297 243.3878 0013509 7.6889 352.4535 14.90855872614731 RS-30 1 32953U 08025A 19241.67762935 .00000020 00000-0 75656-4 0 9994 2 32953 82.5007 100.0016 0019456 334.9395 25.0736 12.43091027511251 PRISM 1 33493U 09002B 19240.79666674 .00000626 00000-0 60305-4 0 9992 2 33493 98.1197 164.4465 0014013 311.7885 48.2137 14.96706436575784 NOAA-19 1 33591U 09005A 19241.73568538 .00000017 00000-0 34794-4 0 9996 2 33591 99.1843 234.6165 0014044 172.3478 187.7909 14.12373552544073 TISAT-1 1 36799U 10035E 19241.41707195 .00000070 00000-0 13209-4 0 9990 2 36799 98.1648 35.9866 0011689 204.8280 155.2376 14.91140486495452 JUGNU 1 37839U 11058B 19241.22040681 .00000319 00000-0 28114-4 0 9998 2 37839 19.9606 261.0204 0019049 36.1363 36.0154 14.12656708407384 SRMSAT 1 37841U 11058D 19241.44740059 .00000316 00000-0 28395-4 0 9999 2 37841 19.9727 317.9042 0011690 265.4285 189.2807 14.10637308406834 AO-71 1 37854U 11061E 19241.02443444 .00000420 00000-0 29643-4 0 9992 2 37854 101.6977 175.9257 0160324 213.8923 145.1964 15.06535793427737 HRBE 1 37855U 11061F 19241.04381946 .00000340 00000-0 25324-4 0 9996 2 37855 101.7100 173.2644 0173000 225.2459 133.4566 15.05545280427519 ALMASAT-1 1 38078U 12006B 19241.75922758 .00047272 46307-5 24689-3 0 9996 2 38078 69.4226 59.6679 0148733 150.7927 293.9738 15.66696301408765 HORYU-2 1 38340U 12025D 19241.10842581 .00000101 00000-0 22846-4 0 9992 2 38340 98.3240 281.8220 0010218 254.6596 105.3483 14.75741007391696 RS-40 1 38735U 12041C 19241.77110421 .00000055 00000-0 32346-3 0 9995 2 38735 82.4772 183.1524 0018200 79.3490 280.9640 12.42579163321505 BEESAT-3 1 39135U 13015F 19240.91688079 .00000536 00000-0 36283-4 0 9995 2 39135 064.8693 168.9688 0030898 304.8195 055.0025 15.17560838350664 BEESAT-2 1 39136U 13015G 19241.17871413 .00000577 00000-0 38970-4 0 9991 2 39136 64.8683 172.1509 0022991 304.6270 55.2687 15.16976598351019 ZACUBE-1 1 39417U 13066B 19241.65398208 .00000123 00000-0 21791-4 0 9998 2 39417 97.5626 251.1119 0059561 156.6512 203.7428 14.81139197311693 TRITON-1 1 39427U 13066M 19240.89519481 .00000151 00000-0 32315-4 0 9997 2 39427 097.6831 213.8983 0112501 297.9456 061.0397 14.67869522308598 GOMX-1 1 39430U 13066Q 19241.75737464 .00000133 00000-0 32935-4 0 9998 2 39430 97.7517 193.5847 0151950 27.4672 333.4461 14.59274737307118 LO-74 1 39440U 13066AA 19241.41377184 .00000115 00000-0 23041-4 0 9999 2 39440 97.6057 235.6290 0079358 211.0565 148.5942 14.75877217310551 AO-73 1 39444U 13066AE 19240.93953652 .00000171 00000-0 27310-4 0 9994 2 39444 097.5603 252.4518 0058784 152.5734 207.8603 14.81962547309894 SPROUT 1 39770U 14029E 19241.74935506 .00000426 00000-0 53249-4 0 9997 2 39770 97.8873 344.5891 0008119 201.0603 159.0240 14.87398229285543 DUCHIFAT-1 1 40021U 14033M 19241.77187955 .00000109 00000-0 16931-4 0 9998 2 40021 97.9225 166.6033 0013021 165.9725 194.1856 14.90665780282282 NANOSATCBR1 1 40024U 14033Q 19241.76960174 .00000106 00000-0 16952-4 0 9992 2 40024 97.9115 163.8385 0012248 169.2352 190.9130 14.89875216282177 EO-79 1 40025U 14033R 19241.74117640 .00000148 00000-0 21713-4 0 9990 2 40025 97.9031 161.3040 0012345 175.9159 184.2160 14.88970436282047 DTUSAT-2 1 40030U 14033W 19241.75699264 .00000098 00000-0 16573-4 0 9996 2 40030 97.8945 159.3581 0011908 171.0336 189.1096 14.88560402281972 EO-80 1 40032U 14033Y 19241.76531449 .00000121 00000-0 19004-4 0 9998 2 40032 97.8951 159.3673 0011869 171.6613 188.4803 14.88504082281962 ANTELSAT 1 40034U 14033AA 19240.84221595 .00000127 00000-0 26392-4 0 9990 2 40034 97.7515 104.9644 0057522 226.0500 133.5957 14.74125121279156 VELOX-1 1 40057U 14034E 19241.72494243 .00000186 00000-0 33567-4 0 9993 2 40057 98.2433 6.4000 0010988 10.1553 349.9882 14.77695530278409 DAURIA DX 1 1 40071U 14037C 19241.69800909 .00000062 00000-0 15508-4 0 9996 2 40071 98.4355 39.2937 0008487 4.0655 356.0622 14.81285301277911 UKUBE-1 1 40074U 14037F 19241.70527369 .00000135 00000-0 23375-4 0 9999 2 40074 98.4443 47.7814 0004921 3.4038 356.7218 14.84083848278337 HODOYOSHI-1 1 40299U 14070B 19241.71452652 .00000308 00000-0 15837-4 0 9994 2 40299 97.3462 319.9658 0013848 142.7839 8.5126 15.23418832267235 CHUBUSAT-1 1 40300U 14070C 19241.77897707 .00000386 00000-0 19766-4 0 9998 2 40300 97.3237 314.1273 0020096 158.7405 299.2196 15.22142183266986 QSAT-EOS 1 40301U 14070D 19241.77128240 .00001069 00000-0 43900-4 0 9994 2 40301 97.3241 317.5370 0026872 141.2415 314.3192 15.26058908267287 FIREBIRD FU3 1 40377U 15003B 19240.96571038 .00000732 00000-0 33087-4 0 9992 2 40377 99.1179 235.8227 0125970 212.6145 146.7260 15.18963586252741 FIREBIRD FU4 1 40378U 15003C 19241.74302882 .00000709 00000-0 32152-4 0 9995 2 40378 99.1183 236.8402 0126238 209.8989 149.4989 15.18973098252865 GRIFEX 1 40379U 15003D 19241.76015738 .00000521 00000-0 26852-4 0 9991 2 40379 99.1183 230.4812 0134029 229.6141 129.3326 15.15615314252502 NO-84 1 40654U 15025D 19241.28020413 .00004962 00000 0 71848-4 0 7089 2 40654 54.9869 205.9814 0136812 149.0315 211.8876 15.47980016123533 NO-83 1 40655U 15025E 19241.55196510 .00060801 12062-4 22858-3 0 08685 2 40655 054.9633 071.7709 0041795 226.7266 132.9982 15.86785534125105 DEORBITSAIL 1 40719U 15032E 19241.27549093 .00000232 00000-0 40299-4 0 9993 2 40719 97.8995 131.6163 0017918 75.3078 285.0116 14.76777278222822 NUDT-PHONESAT 1 40900U 15049B 19241.72985551 .00001166 00000-0 52631-4 0 9996 2 40900 97.4376 250.3621 0011243 297.6917 182.7743 15.22962258218625 XW-2A 1 40903U 15049E 19241.75213632 .00001009 00000-0 25636-4 0 9997 2 40903 97.3328 284.9074 0011987 241.5916 230.1182 15.42017948221359 XW-2C 1 40906U 15049H 19241.76254976 .00000136 00000-0 10611-4 0 9994 2 40906 97.4691 242.6532 0013652 314.9183 150.8191 15.15725282217910 XW-2D 1 40907U 15049J 19241.73343897 .00000597 00000-0 34601-4 0 9999 2 40907 97.4678 242.3043 0012707 311.7463 166.4309 15.15920643217929 LILACSAT-2 1 40908U 15049K 19241.71389192 .00000002 00000-0 37285-5 0 9999 2 40908 97.4803 241.0442 0014928 318.6472 158.8186 15.13832244217703 XW-2E 1 40909U 15049L 19241.76472502 .00000432 00000-0 24661-4 0 9993 2 40909 97.4608 245.2737 0012192 305.8004 140.6200 15.17864650218123 XW-2F 1 40910U 15049M 19241.62298547 .00000491 00000-0 27919-4 0 9999 2 40910 97.4643 244.2965 0013206 304.2368 152.4778 15.17378153217925 XW-2B 1 40911U 15049N 19241.76746572 .00000161 00000-0 11907-4 0 9995 2 40911 97.4690 242.9988 0012921 313.0631 154.3776 15.15846517217822 DCBB 1 40912U 15049P 19241.67910817 .00000738 00000-0 37734-4 0 9997 2 40912 97.4504 248.1032 0013170 282.9400 189.9057 15.19701962218241 TW-1C 1 40926U 15051B 19241.66710572 .00008912 00000-0 12539-3 0 9997 2 40926 97.1309 287.7788 0009879 104.1328 354.4250 15.56838548221350 TW-1A 1 40928U 15051D 19241.70637600 .00001971 00000-0 49572-4 0 9990 2 40928 97.1421 271.4119 0011624 162.7133 292.6639 15.41067611220262 IO-86 1 40931U 15052B 19241.68774881 .00000627 00000-0 -16366-5 0 9999 2 40931 5.9992 263.2218 0012291 91.7556 268.4480 14.76612057211921 LQSat 1 40958U 15057A 19240.75018517 -.00000023 00000-0 40981-5 0 9997 2 40958 97.8937 308.0088 0018481 17.8394 342.3459 14.73086593209267 AO-85 1 40967U 15058D 19241.41342172 .00000007 00000 0 19628-4 0 7934 2 40967 64.7782 300.5859 0192028 179.7222 180.4019 14.75982160118325 ATHENOXAT-1 1 41168U 15077C 19241.73144452 .00001419 00000-0 39341-4 0 9996 2 41168 14.9888 48.0887 0011537 14.8328 345.2330 15.13721153204913 ChubuSat-2 1 41338U 16012B 19241.75178126 .00000242 00000-0 12104-4 0 9993 2 41338 31.0039 46.8126 0013564 96.8418 263.3760 15.00170222193740 ChubuSat-3 1 41339U 16012C 19241.64634051 .00000324 00000-0 18426-4 0 9990 2 41339 31.0119 45.4770 0013953 100.3688 259.8522 15.00345218193725 Horyu-4 1 41340U 16012D 19241.44504652 .00000350 00000-0 19858-4 0 9992 2 41340 31.0058 37.4807 0013723 121.1861 239.0121 15.01295074193809 OUFTI-1 1 41458U 16025C 19241.15380355 .00001323 00000-0 70459-4 0 9991 2 41458 98.1008 331.6329 0167454 116.6330 245.2158 15.05948830183321 e-st@r-II 1 41459U 16025D 19241.65262289 .00001764 00000-0 92958-4 0 9999 2 41459 98.1028 331.7779 0168907 116.5993 245.2645 15.05590100183371 AAUSAT4 1 41460U 16025E 19241.73683673 .00002378 00000-0 12140-3 0 9990 2 41460 98.0948 333.2892 0158336 108.2326 253.6240 15.07522092183527 LO-87 1 41557U 16033B 19241.72161793 .00000783 00000-0 31951-4 0 9999 2 41557 97.4169 328.8039 0014979 48.5857 311.6666 15.27325054181081 NuSat2 1 41558U 16033C 19241.73175135 .00000771 00000-0 29782-4 0 9992 2 41558 97.4198 330.0946 0014038 49.0777 311.1676 15.29234615181146 Lapan A3 1 41603U 16040E 19241.74787140 .00000169 00000-0 11050-4 0 9997 2 41603 97.3551 298.6603 0014434 141.7034 329.6711 15.19735167176688 Swayam 1 41607U 16040J 19241.39563240 .00000949 00000-0 42719-4 0 9997 2 41607 97.3600 302.0897 0014685 134.4170 225.8271 15.23422242176792 Pratham 1 41783U 16059A 19241.13903939 .00000020 00000-0 13028-4 0 9998 2 41783 98.0615 299.1212 0034169 157.3138 202.9583 14.63005545155992 AlSat 1N 1 41789U 16059G 19241.68175833 .00000042 00000-0 16999-4 0 9992 2 41789 98.0638 301.8035 0029277 144.8227 215.4917 14.64257444156181 ScatSat 1 41790U 16059H 19241.64904052 -.00000013 00000-0 77623-5 0 9994 2 41790 98.2037 284.9754 0006706 97.4671 262.7289 14.50912189154763 TY-1 1 41844U 16066D 19241.71640940 .00000498 00000-0 23229-4 0 9991 2 41844 97.4055 248.2385 0013592 298.4661 174.1667 15.24357594155661 Pegasus-1 1 41846U 16066F 19240.66387183 .00000094 00000-0 24443-4 0 9994 2 41846 098.7061 281.9695 0367906 027.5929 334.4263 14.37604107146752 CAS-2T 1 41847U 16066G 19241.55669585 .00000029 00000-0 14820-4 0 9999 2 41847 98.7002 283.4042 0366263 21.3063 340.2937 14.38001145147328 EO-88 1 42017U 17008BX 19241.12566075 .00000902 00000-0 38270-4 0 9994 2 42017 97.3981 307.4694 0004502 279.9812 80.0918 15.25656658140814 nSIGHT1 1 42726U 98067MF 19241.39645558 .00015686 00000-0 11342-3 0 9993 2 42726 51.6353 301.3159 0004827 74.4168 285.7363 15.73681550129107 CAS-4B 1 42759U 17034B 19241.78914499 .00000142 00000-0 22205-4 0 9992 2 42759 43.0162 194.7957 0012029 339.4252 99.2393 15.09618057121730 CAS-4A 1 42761U 17034D 19241.74703919 .00000081 00000-0 18481-4 0 9997 2 42761 43.0167 194.5158 0012401 339.9689 90.2781 15.09694981121723 UCLSat 1 42765U 17036A 19240.83370246 .00000696 00000-0 32649-4 0 9999 2 42765 97.3452 297.3036 0010939 348.5623 11.5363 15.22842530121295 NIUSat 1 42766U 17036B 19241.60152620 .00000554 00000-0 27850-4 0 9991 2 42766 97.3448 296.2985 0014769 334.1320 25.9176 15.21190797121169 LituanicaSAT 2 1 42768U 17036D 19241.59706868 .00001214 00000-0 54563-4 0 9995 2 42768 97.3489 297.6947 0014056 333.4286 26.6228 15.22967036121256 Aalto 1 1 42775U 17036L 19240.89401911 .00000438 00000-0 22542-4 0 9995 2 42775 097.3435 295.9451 0013185 337.2541 022.8110 15.21405804121037 URSA MAIOR 1 42776U 17036M 19241.11152663 .00000493 00000-0 24902-4 0 9992 2 42776 97.3445 296.3284 0012986 336.4464 23.6176 15.21544750121070 Max Valier Sat 1 42778U 17036P 19240.85962099 .00000528 00000-0 26041-4 0 9991 2 42778 097.3487 296.9380 0011658 342.4743 017.6090 15.22097915121067 Pegasus 1 42784U 17036V 19240.86986040 .00000665 00000-0 31552-4 0 9996 2 42784 097.3456 297.1366 0011510 348.5866 011.5107 15.22588186121097 NUDATSat 1 42787U 17036Y 19241.15028444 .00001015 00000-0 45275-4 0 9994 2 42787 97.3496 298.2110 0012050 345.7328 14.3567 15.23598283121029 SUCHAI 1 1 42788U 17036Z 19240.92294381 .00000793 00000-0 36631-4 0 9992 2 42788 097.3461 297.5364 0011051 347.7640 012.3327 15.23020439121197 SKCUBE 1 42789U 17036AA 19240.68070278 .00000721 00000-0 33678-4 0 9992 2 42789 097.3458 297.2281 0010943 348.8702 011.2291 15.22912758121077 VZLUSAT 1 1 42790U 17036AB 19240.67753741 .00000997 00000-0 44546-4 0 9997 2 42790 097.3473 297.7472 0010447 348.1641 011.9349 15.23590650121106 VENTA 1 1 42791U 17036AC 19240.71994928 .00000755 00000-0 35097-4 0 9990 2 42791 097.3456 297.3176 0010613 349.5447 010.5568 15.22922371121071 Robusta 1B 1 42792U 17036AD 19241.12931837 .00000785 00000-0 36226-4 0 9995 2 42792 97.3458 297.8327 0010497 348.2632 11.8359 15.23085540121160 D-SAT 1 42794U 17036AF 19240.87245207 .00000235 00000-0 26113-4 0 9991 2 42794 097.5339 282.4215 0124971 264.3271 094.3687 14.91123489118949 TechnoSat 1 42829U 17042E 19241.62245181 .00000034 00000-0 87920-5 0 9993 2 42829 97.5544 131.4791 0014230 174.2280 185.9106 14.90991457115658 TOMSK-TPU 120 1 42910U 98067MZ 19241.47408074 .00078449 13500-4 23813-3 0 9992 2 42910 51.6304 273.1286 0005251 46.3890 102.1980 15.92163731116433 TANYUSHA 2 1 42912U 98067NB 19241.78820602 .00462866 12317-3 41478-3 0 9994 2 42912 51.6318 260.4482 0008591 52.5902 296.8793 16.12072957116626 TNS 0-2 1 42914U 98067ND 19241.31706792 .00078779 13596-4 22211-3 0 9999 2 42914 51.6296 274.0039 0005736 45.8997 314.2481 15.93562161116403 QIKCOM-1 1 42983U 98067NF 19241.68832514 .00002093 00000-0 32592-4 0 9999 2 42983 51.6410 338.6871 0004432 40.7412 319.3912 15.59196822104575 AO-91 1 43017U 17073E 19240.99369516 .00000267 00000-0 27038-4 0 9996 2 43017 97.7205 159.5623 0256610 286.3761 70.9381 14.78611929 95797 EcAMSat 1 43019U 98067NG 19241.66929540 .00003829 00000-0 49251-4 0 9992 2 43019 51.6418 332.6093 0004848 22.5496 337.5710 15.61842813186978 PICSAT 1 43132U 18004X 19240.89528465 .00000778 00000-0 35406-4 0 9993 2 43132 097.4836 308.5599 0009965 014.9544 345.1986 15.23683059090341 AO-92 1 43137U 18004AC 19241.61491549 .00000596 00000-0 27924-4 0 9995 2 43137 97.4825 309.2402 0009534 14.7174 345.4338 15.23550381 90440 TianYi 2 1 43155U 18008A 19241.72256981 .00000431 00000-0 29360-4 0 9994 2 43155 97.4824 312.7368 0019322 78.7318 20.5463 15.11207218 88706 Zhou Enlai 1 43156U 18008B 19241.72717372 .00000586 00000-0 39078-4 0 9999 2 43156 97.4871 312.6257 0016506 76.7314 23.5626 15.10716546 88678 TianYi 6 1 43158U 18008D 19241.45420348 .00000577 00000-0 38971-4 0 9996 2 43158 97.4835 311.7643 0015462 75.3539 350.2749 15.10302078 88591 S-Net G 1 43186U 18014G 19241.69750431 .00000649 00000-0 61887-4 0 9991 2 43186 97.7038 149.0868 0012532 120.3337 239.9126 14.96668354 85902 S-Net H 1 43187U 18014H 19240.76133188 .00000662 00000-0 63047-4 0 9998 2 43187 97.7035 148.1514 0012465 123.1160 237.1260 14.96667365 85762 S-Net J 1 43188U 18014J 19241.69713752 .00000652 00000-0 62165-4 0 9992 2 43188 97.7037 149.0922 0012531 120.2362 240.0101 14.96667972 85901 S-Net K 1 43189U 18014K 19241.29633736 .00000636 00000-0 60709-4 0 9996 2 43189 97.7034 148.6754 0012495 121.3563 238.8883 14.96667354 84399 FMN 1 1 43192U 18015A 19241.62513778 .00001093 00000-0 47322-4 0 9995 2 43192 97.4078 8.5027 0017362 45.0597 52.9679 15.24437122 87270 Shaonian Xing 1 43199U 18015H 19241.74665481 .00000812 00000-0 35382-4 0 9995 2 43199 97.3862 7.5967 0018507 54.8894 57.0122 15.24908083 87345 1KUNS-PF 1 43466U 98067NP 19241.65018941 .00014043 00000-0 12750-3 0 9994 2 43466 51.6377 328.6210 0001570 25.2119 334.8954 15.68300698 74204 UBAKUSAT 1 43467U 98067NQ 19241.64251506 .00007934 00000-0 87866-4 0 9992 2 43467 51.6382 334.5811 0002549 355.8621 4.2352 15.64032974 74138 Irazu 1 43468U 98067NR 19241.61657678 .00020377 00000-0 15610-3 0 9993 2 43468 51.6359 323.8514 0001905 17.4810 342.6253 15.72097901174253 EnduroSat One 1 43551U 98067NZ 19241.26851694 .00011311 00000-0 12086-3 0 9993 2 43551 51.6382 338.8339 0005922 53.3383 306.8156 15.64433653 64273 EQUISat 1 43552U 98067PA 19241.63063222 .00008160 00000-0 94121-4 0 9996 2 43552 51.6400 339.0332 0006271 55.0286 305.1297 15.62921047 64264 UiTMSat 1 1 43589U 98067PD 19241.30608841 .00009839 00000-0 11117-3 0 9999 2 43589 51.6371 341.2954 0005570 60.0589 300.0958 15.63177652 59942 Maya 1 1 43590U 98067PE 19240.53319139 .00011878 00000-0 13296-3 0 9990 2 43590 51.6375 345.1391 0005611 58.7017 301.4526 15.63177933 59759 Bhutan 1 1 43591U 98067PF 19241.67192000 .00009242 00000-0 10444-3 0 9997 2 43591 51.6383 339.2720 0005812 62.5014 297.6570 15.63261571 59939 SiriusSat 1 1 43595U 98067PG 19241.31337803 .00009039 00000-0 10592-3 0 9992 2 43595 51.6373 342.8498 0003734 23.0502 337.0659 15.62355419 59031 SiriusSat 2 1 43596U 98067PH 19241.67097584 .00008296 00000-0 98308-4 0 9997 2 43596 51.6384 341.5306 0004291 24.0425 336.0768 15.62193326 59084 Tanusha-3 1 43597U 98067PJ 19241.14300209 .00014178 00000-0 15203-3 0 9999 2 43597 51.6366 341.6805 0003878 34.0776 326.0467 15.64099237 59038 SurfSat 1 43614U 18070B 19241.38117609 .00001599 00000-0 43168-4 0 9996 2 43614 93.0272 33.2450 0017389 37.3761 322.8698 15.37752171 53426 CP-7 DAVE 1 43615U 18070C 19240.87023450 .00001578 00000-0 42706-4 0 9994 2 43615 093.0273 033.0333 0017620 038.6848 321.5664 15.37658438053345 ELFIN-B 1 43616U 18070D 19241.36784532 .00002284 00000-0 60312-4 0 9993 2 43616 93.0235 33.1473 0018375 39.9917 320.2686 15.38373642 53431 ELFIN-A 1 43617U 18070E 19240.90421544 .00002587 00000-0 68197-4 0 9999 2 43617 093.0290 033.2264 0017509 039.0283 321.2230 15.38427283053366 STARS-Me Mother 1 43640U 98067PQ 19241.73536324 .00005141 00000-0 70252-4 0 9998 2 43640 51.6385 345.7017 0005521 11.4168 348.6949 15.59355811 50964 CubeBel 1 1 43666U 18083E 19241.75862882 .00000421 00000-0 24275-4 0 9999 2 43666 97.5173 265.7374 0013622 302.0230 181.9108 15.17677347 46216 Changshagaoxin 1 43669U 18083H 19241.75587879 .00000440 00000-0 25775-4 0 9999 2 43669 97.5038 264.8224 0009389 294.5207 65.5047 15.16859518 46150 Ten-Koh 1 43677U 18084G 19241.67168344 .00000117 00000-0 17912-4 0 9997 2 43677 97.8580 354.9598 0017092 48.3478 311.9199 14.90185889 45333 PO-101 1 43678U 18084H 19241.65527396 -.00000342 00000-0 -28383-4 0 9998 2 43678 97.8578 355.6186 0011349 68.3867 291.8551 14.91563704 45374 IRVINE 01 1 43693U 18088D 19241.23818549 .00001421 00000-0 61095-4 0 9990 2 43693 85.0330 270.8619 0016018 293.1034 66.8519 15.21577894 44245 QO-100 1 43700U 18090A 19241.10266109 .00000126 00000-0 00000 0 0 9992 2 43700 0.0244 142.1318 0001512 38.4862 219.1864 1.00272279 3011 Reaktor Hello World 1 43743U 18096AA 19241.73687069 .00000739 00000-0 30844-4 0 9990 2 43743 97.4560 311.6430 0019955 83.1899 15.1162 15.26718220 41723 MinXSS-2 1 43758U 18099A 19241.41641212 .00000653 00000-0 64142-4 0 9997 2 43758 97.7409 312.6075 0017287 88.9950 271.3251 14.95445354 40158 AO-95 1 43770U 18099N 19241.19569518 .00000135 00000-0 17704-4 0 9991 2 43770 97.7407 312.1363 0016148 95.6472 264.6590 14.94795833 40109 RANGE-B 1 43772U 18099Q 19240.84472337 -.00000102 00000-0 -40148-5 0 9991 2 43772 097.7465 312.0018 0015738 085.0801 275.2216 14.94914054040048 RANGE-A 1 43773U 18099R 19241.18688356 -.00000188 00000-0 -11982-4 0 9997 2 43773 97.7355 311.9737 0015059 84.1442 276.1494 14.94824290 40095 MOVE-II 1 43780U 18099Y 19240.74692066 .00000695 00000-0 68507-4 0 9995 2 43780 97.7401 311.7536 0015239 95.5160 264.7799 14.95103730 40027 SNUSat 2 1 43782U 18099AA 19240.87612363 .00000496 00000-0 50447-4 0 9996 2 43782 097.7405 311.9255 0014383 085.3359 274.9504 14.95078041040055 SnugLite 1 43784U 18099AC 19241.19691504 .00000178 00000-0 21388-4 0 9997 2 43784 97.7368 312.1541 0016653 91.2866 269.0262 14.95161237 40110 ITASat 1 1 43786U 18099AE 19240.86019898 .00000004 00000-0 56297-5 0 9998 2 43786 97.7422 312.0111 0016728 91.2011 269.1126 14.95162084 40065 EAGLET 1 1 43790U 18099AJ 19241.19382563 -.00000004 00000-0 48212-5 0 9991 2 43790 97.7411 312.4647 0014910 94.7830 265.5094 14.95534099 39818 ESEO 1 43792U 18099AL 19241.19187615 -.00000142 00000-0 -76219-5 0 9996 2 43792 97.7390 312.4034 0014760 91.9792 268.3119 14.95519795 39876 CSIM 1 43793U 18099AM 19240.90124133 .00000158 00000-0 19365-4 0 9994 2 43793 097.7363 312.0132 0014751 091.1220 269.1691 14.95745875039807 Astrocast 0.1 1 43798U 18099AS 19241.15268701 .00000508 00000-0 50718-4 0 9993 2 43798 97.7402 312.4722 0014080 77.3243 282.9551 14.95750219 40102 JO-97 1 43803U 18099AX 19241.70854489 -.00000191 00000-0 -12071-4 0 9995 2 43803 97.7383 312.7488 0016757 89.0671 271.2470 14.95302083 40188 Suomi 100 1 43804U 18099AY 19240.77125741 -.00000093 00000-0 -31474-5 0 9994 2 43804 97.7382 311.8210 0016847 92.0739 268.2411 14.95300719 40051 Al Farabi 2 1 43805U 18099AZ 19241.76752938 .00000144 00000-0 18285-4 0 9998 2 43805 97.7385 312.8265 0016935 89.2052 271.1109 14.95366100 40200 PWSat 2 1 43814U 18099BJ 19240.85529324 .00009590 00000-0 75339-3 0 9994 2 43814 97.7775 313.7621 0013848 107.8062 252.4675 15.01031930 39528 CHOMPTT 1 43855U 18104G 19240.81655139 .00000621 00000-0 24920-4 0 9993 2 43855 85.0379 9.4090 0020136 57.1838 303.1355 15.22459590 38840 ISAT 1 43879U 18111D 19241.76233443 .00000662 00000-0 64053-4 0 9998 2 43879 97.7121 148.7093 0014257 137.7128 222.5195 14.96021464 34729 UWE-4 1 43880U 18111E 19241.72239067 -.00000328 00000-0 -23854-4 0 9999 2 43880 97.7130 148.7922 0013079 138.5671 221.6545 14.96263231 34724 Sparrow 1 43881U 18111F 19240.77866491 .00000005 00000-0 55177-5 0 9995 2 43881 97.7138 147.8918 0013257 139.8250 220.3953 14.96312338 34578 Lume 1 1 43908U 18111AJ 19240.69453356 .00000638 00000-0 28677-4 0 9994 2 43908 97.2833 143.9933 0023366 99.9765 260.4111 15.24421568 37266 FO-98 1 43933U 19003B 19241.63761097 .00000390 00000-0 20187-4 0 9995 2 43933 97.2764 296.8612 0017800 186.9349 331.8639 15.21696976 33998 FO-99 1 43937U 19003F 19241.74305914 .00000717 00000-0 32543-4 0 9995 2 43937 97.2715 297.4444 0024700 173.9725 282.3143 15.23677509 34050 Delphini 1 1 44030U 98067PW 19241.68133850 .00006695 00000-0 95585-4 0 9994 2 44030 51.6391 350.5991 0004875 55.3719 304.7732 15.57583083 32763 MYSat 1 1 44045U 18092F 19241.78873711 .00001350 00000-0 50064-4 0 9994 2 44045 51.6447 21.6964 0011305 349.2178 10.8599 15.35151349 30314 AstroCast 0.2 1 44083U 19018F 19241.69421940 .00000315 00000-0 17116-4 0 9999 2 44083 97.4628 301.0899 0015568 114.3420 245.9443 15.21426058 22860 AISTechSat 3 1 44103U 19018AB 19241.72087985 .00000437 00000-0 21750-4 0 9997 2 44103 97.4510 301.1399 0014929 130.4378 325.4228 15.22698409 22889 AISat 1 1 44104U 19018AC 19241.12994112 .00000593 00000-0 21796-4 0 9994 2 44104 97.5038 303.3651 0059258 172.0356 188.1840 15.30540369 22933 Raavana-1 1 44329U 98067QE 19241.17346359 .00004768 00000-0 83416-4 0 9998 2 44329 51.6422 358.4701 0007240 352.3979 7.6900 15.52658310 11362 Uguisu 1 44330U 98067QF 19241.69015151 .00004437 00000-0 78241-4 0 9993 2 44330 51.6423 355.9207 0007228 352.9206 7.1681 15.52624260 11428 NepaliSat-1 1 44331U 98067QG 19241.17182345 .00004763 00000-0 83235-4 0 9998 2 44331 51.6422 358.4596 0007275 353.6977 6.3921 15.52693133 11357 Prox-1 1 44339U 19036A 19241.03745274 .00000160 00000-0 -12272-4 0 9997 2 44339 23.9991 157.5928 0011383 184.6997 175.3394 14.52654482 9412 OBJECT H 1 44346U 19036H 19240.96239473 .00012419 00000-0 19786-3 0 9990 2 44346 028.5233 140.8282 0388770 069.1780 295.0001 14.96776089009693 OBJECT J 1 44347U 19036J 19240.91331667 .00035259 00000-0 56295-3 0 9997 2 44347 28.5266 140.4671 0379102 69.4180 294.6660 14.99033601 9699 OBJECT K 1 44348U 19036K 19240.94115112 .00010866 00000-0 16997-3 0 9998 2 44348 028.5173 140.6322 0388298 069.1530 295.0193 14.97173713009697 Armadillo 1 44352U 19036P 19240.99718604 .00015814 00000-0 25237-3 0 9998 2 44352 28.5315 140.1876 0384998 69.8295 294.3278 14.97624882 9646 NO-104 1 44354U 19036R 19241.04324083 .00010914 00000-0 16787-3 0 9997 2 44354 28.5305 139.5621 0386380 70.4259 293.7624 14.97919566 9691 NO-103 1 44355U 19036S 19241.76637256 .00017687 00000-0 27458-3 0 9997 2 44355 28.5309 134.7136 0383418 78.3349 286.0002 14.98576568 9800 Oculus-ASR 1 44356U 19036T 19240.97415705 .00045656 00000-0 67075-3 0 9999 2 44356 028.5213 138.9738 0378056 071.1092 293.0111 15.01048623009706 CP9 1 44360U 19036X 19240.97541562 .00030059 00000-0 42048-3 0 9999 2 44360 028.5159 138.9006 0386359 071.5753 292.6440 15.00328779009589 Move-IIb 1 44398U 19038N 19241.17767574 .00000874 00000-0 54823-4 0 9995 2 44398 97.4940 202.0567 0027221 59.4783 300.9129 15.11635790 8263 SONATE 1 44400U 19038Q 19241.17626157 .00000422 00000-0 28440-4 0 9995 2 44400 97.4952 202.0591 0026903 57.8984 302.4853 15.11652092 8263 BeeSat 9 1 44412U 19038AC 19240.84059081 .00000630 00000-0 40435-4 0 9996 2 44412 097.4948 201.7394 0024650 064.5416 295.8361 15.11792799007908 JAISAT-1 1 44419U 19038F 19241.35207238 .00000470 00000-0 30749-4 0 9998 2 44419 97.4950 202.2837 0023434 62.8958 297.4659 15.12287927 8291 LightSail-2 1 44420U 19036AC 19240.83328445 .00002295 00000-0 49611-3 0 9998 2 44420 24.0048 158.9123 0023852 170.4972 189.5975 14.52769364 7528 /EX
